K5WPH Weather Reports


Display with metric or nautical units.
time (UTC)temp
F
wind
direction
speed
MPH
gust
MPH
rain 1hr
in
rain 24hr
in
rain mn
in
humidity
%
barometer
mb
20260903154129 84 297 0.0 0.0 0.01 0.00 0.00 6
20260903153629 84 319 11.0 0.0 0.01 0.00 0.00 6
20260903153130 84 285 0.0 0.0 0.01 0.00 0.00 6
20260903152630 85 288 21.0 0.0 0.01 0.00 0.00 6
20260903152129 84 319 0.0 0.0 0.01 0.00 0.00 6
20260903151629 84 319 0.0 0.0 0.01 0.00 0.00 7
20260903151130 84 319 0.0 0.0 0.01 0.00 0.00 7
20260903150629 83 319 0.0 0.0 0.01 0.00 0.00 7
20260903150129 83 319 0.0 0.0 0.01 0.00 0.00 8
20260903145629 82 276 0.0 0.0 0.01 0.00 0.00 8
20260903145129 82 276 0.0 0.0 0.01 0.00 0.00 8
20260903144629 82 276 0.0 0.0 0.01 0.00 0.00 8
20260903144130 81 276 0.0 0.0 0.01 0.00 0.00 9
20260903143629 81 276 0.0 0.0 0.01 0.00 0.00 9
20260903143129 81 276 0.0 0.0 0.01 0.00 0.00 9
20260903142630 81 300 15.0 0.0 0.01 0.00 0.00 9
20260903142129 80 305 0.0 0.0 0.01 0.00 0.00 9
20260903141629 80 329 0.0 0.0 0.01 0.00 0.00 9
20260903141129 80 298 0.0 0.0 0.01 0.00 0.00 9
20260903140630 80 298 0.0 0.0 0.01 0.00 0.00 9
20260903140130 80 271 0.0 0.0 0.01 0.00 0.00 9
20260903135628 81 271 0.0 0.0 0.01 0.00 0.00 9
20260903135129 80 274 0.0 0.0 0.01 0.00 0.00 9
20260903134629 80 274 0.0 0.0 0.01 0.00 0.00 9
20260903134130 80 274 0.0 0.0 0.01 0.00 0.00 9
20260903133629 80 274 0.0 0.0 0.01 0.00 0.00 9
20260903133130 80 274 0.0 0.0 0.01 0.00 0.00 9
20260903132630 80 274 0.0 0.0 0.01 0.00 0.00 9
20260903132130 80 304 0.0 0.0 0.01 0.00 0.00 9
20260903131630 80 304 0.0 0.0 0.01 0.00 0.00 9
20260903131130 80 304 0.0 0.0 0.01 0.00 0.00 9
20260903130630 80 304 0.0 0.0 0.01 0.00 0.00 9
20260903130130 80 304 0.0 0.0 0.01 0.00 0.00 8
20260903125628 80 304 0.0 0.0 0.01 0.00 0.00 8
20260903125129 80 304 0.0 0.0 0.01 0.00 0.00 8
20260903124628 80 304 0.0 0.0 0.01 0.00 0.00 8
20260903124130 79 304 0.0 0.0 0.01 0.00 0.00 8
20260903123630 79 304 0.0 0.0 0.01 0.00 0.00 8
20260903123128 79 304 0.0 0.0 0.01 0.00 0.00 8
20260903122631 79 304 0.0 0.0 0.01 0.00 0.00 8
20260903122130 79 304 0.0 0.0 0.01 0.00 0.00 9
20260903121629 79 304 0.0 0.0 0.01 0.00 0.00 9
20260903121130 79 304 0.0 0.0 0.01 0.00 0.00 9
20260903120629 78 271 20.0 0.0 0.01 0.00 0.00 9
20260903120130 78 249 0.0 0.0 0.01 0.00 0.00 9
20260903115629 79 249 0.0 0.0 0.01 0.00 0.00 9
20260903115129 79 249 0.0 0.0 0.01 0.00 0.00 9
20260903114629 79 249 0.0 0.0 0.01 0.00 0.00 9
20260903114130 80 249 0.0 0.0 0.01 0.00 0.00 9
20260903113629 80 249 0.0 0.0 0.01 0.00 0.00 9
20260903113129 80 249 0.0 0.0 0.01 0.00 0.00 9
20260903112628 80 249 0.0 0.0 0.01 0.00 0.00 9
20260903112128 80 249 0.0 0.0 0.01 0.00 0.00 8
20260903111629 80 249 0.0 0.0 0.01 0.00 0.00 8
20260903111130 80 249 0.0 0.0 0.01 0.00 0.00 8
20260903110629 80 249 0.0 0.0 0.01 0.00 0.00 8
20260903110129 80 304 0.0 0.0 0.01 0.00 0.00 8
20260903105629 80 304 0.0 0.0 0.01 0.00 0.00 9
20260903105130 80 304 0.0 0.0 0.01 0.00 0.00 9
20260903104628 80 304 0.0 0.0 0.01 0.00 0.00 9
20260903104130 80 304 0.0 0.0 0.01 0.00 0.00 9
20260903103630 80 304 0.0 0.0 0.01 0.00 0.00 9
20260903103129 80 304 0.0 0.0 0.01 0.00 0.00 9
20260903102628 80 304 0.0 0.0 0.01 0.00 0.00 9
20260903102128 80 304 0.0 0.0 0.01 0.00 0.00 9
20260903101628 80 304 0.0 0.0 0.01 0.00 0.00 9
20260903101129 81 304 0.0 0.0 0.01 0.00 0.00 9
20260903100629 81 304 0.0 0.0 0.01 0.00 0.00 9
20260903100130 80 304 0.0 0.0 0.01 0.00 0.00 9
20260903095628 80 304 0.0 0.0 0.01 0.00 0.00 9
20260903095129 80 304 0.0 0.0 0.01 0.00 0.00 9
20260903094629 80 307 0.0 0.0 0.01 0.00 0.00 9
20260903094128 80 307 0.0 0.0 0.01 0.00 0.00 9
20260903093628 80 307 0.0 0.0 0.01 0.00 0.00 9
20260903093130 80 290 0.0 0.0 0.01 0.00 0.00 9
20260903092628 80 290 0.0 0.0 0.01 0.00 0.00 9
20260903092128 80 290 0.0 0.0 0.01 0.00 0.00 9
20260903091628 80 290 0.0 0.0 0.01 0.00 0.00 9
20260903091129 80 290 0.0 0.0 0.01 0.00 0.00 8
20260903090628 80 290 0.0 0.0 0.01 0.00 0.00 8
20260903090129 80 221 0.0 0.0 0.01 0.00 0.00 8
20260903085628 81 221 0.0 0.0 0.01 0.00 0.00 8
20260903085129 81 221 0.0 0.0 0.01 0.00 0.00 8
20260903084628 81 221 0.0 0.0 0.01 0.00 0.00 8
20260903084128 81 221 0.0 0.0 0.01 0.00 0.00 8
20260903083628 81 221 0.0 0.0 0.01 0.00 0.00 8
20260903083129 81 221 0.0 0.0 0.01 0.00 0.00 8
20260903082628 80 221 0.0 0.0 0.01 0.00 0.00 8
20260903082128 81 221 0.0 0.0 0.01 0.00 0.00 8
20260903081628 81 221 0.0 0.0 0.01 0.00 0.00 8
20260903081128 81 221 0.0 0.0 0.01 0.00 0.00 7
20260903080629 81 221 0.0 0.0 0.01 0.00 0.00 7
20260903080129 82 221 0.0 0.0 0.01 0.00 0.00 7
20260903075629 82 221 0.0 0.0 0.01 0.00 0.00 7
20260903075128 82 359 0.0 0.0 0.01 0.00 0.00 7
20260903074628 83 359 0.0 0.0 0.01 0.00 0.00 6
20260903074128 83 359 0.0 0.0 0.01 0.00 0.00 5
20260903073628 84 359 0.0 0.0 0.01 0.00 0.00 4
20260903073128 84 288 0.0 0.0 0.01 0.00 0.00 3
20260903072628 85 288 0.0 0.0 0.01 0.00 0.00 3
20260903072128 85 288 0.0 0.0 0.01 0.00 0.00 2
20260903071628 86 288 0.0 0.0 0.01 0.00 0.00 2
20260903071128 86 288 0.0 0.0 0.01 0.00 0.00 2
20260903070628 86 288 0.0 0.0 0.01 0.00 0.00 2
20260903070128 86 288 0.0 0.0 0.01 0.00 0.00 2
20260903065628 86 288 0.0 0.0 0.01 0.00 0.00 2
20260903065128 87 288 0.0 0.0 0.01 0.00 0.00 1
20260903064628 87 288 0.0 0.0 0.01 0.00 0.00 1
20260903064128 87 288 0.0 0.0 0.01 0.00 0.00 1
20260903063628 87 288 0.0 0.0 0.01 0.00 0.00 1
20260903063128 87 288 0.0 0.0 0.01 0.00 0.00 1
20260903062628 87 288 0.0 0.0 0.01 0.00 0.00 2
20260903062128 87 288 0.0 0.0 0.01 0.00 0.00 2
20260903061628 87 288 0.0 0.0 0.01 0.00 0.00 2
20260903061128 87 288 0.0 0.0 0.01 0.00 0.00 2
20260903060629 87 288 0.0 0.0 0.01 0.00 0.00 2
20260903060128 87 288 0.0 0.0 0.01 0.00 0.00 2
20260903055629 87 238 0.0 0.0 0.01 0.00 0.00 2
20260903055128 88 238 0.0 0.0 0.01 0.00 0.00 2
20260903054628 88 238 0.0 0.0 0.01 0.00 0.00 2
20260903054128 88 238 0.0 0.0 0.01 0.00 0.00 2
20260903053628 88 238 0.0 0.0 0.01 0.00 0.00 2
20260903053128 88 238 0.0 0.0 0.01 0.00 0.00 2
20260903052628 89 238 0.0 0.0 0.01 0.00 0.00 2
20260903052128 89 238 0.0 0.0 0.01 0.00 0.00 1
20260903051628 88 238 0.0 0.0 0.01 0.00 0.00 1
20260903051128 88 238 0.0 0.0 0.01 0.00 0.00 1
20260903050629 88 238 0.0 0.0 0.01 0.00 0.00 1
20260903050129 89 238 0.0 0.0 0.01 0.00 0.00 1
20260903045628 89 238 0.0 0.0 0.01 0.00 0.00 1
20260903045128 89 238 0.0 0.0 0.01 0.00 0.00 1
20260903044628 89 238 0.0 0.0 0.01 0.00 0.00 1
20260903044128 89 238 0.0 0.0 0.01 0.00 0.00 1
20260903043628 89 238 0.0 0.0 0.01 0.00 0.00 1
20260903043127 89 238 0.0 0.0 0.01 0.00 0.00 1
20260903042628 89 238 0.0 0.0 0.01 0.00 0.00 1
20260903042128 89 238 0.0 0.0 0.01 0.00 0.00 1
20260903041628 89 238 0.0 0.0 0.01 0.00 0.00 1
20260903041128 89 238 0.0 0.0 0.01 0.00 0.00 1
20260903040628 89 238 0.0 0.0 0.01 0.00 0.00 1
20260903040128 89 238 0.0 0.0 0.01 0.00 0.00 1
20260903035628 89 238 0.0 0.0 0.01 0.00 0.00 1
20260903035128 89 238 0.0 0.0 0.01 0.00 0.00 1
20260903034627 89 238 0.0 0.0 0.01 0.00 0.00 1
20260903034128 89 238 0.0 0.0 0.01 0.00 0.00 0
20260903033628 89 238 0.0 0.0 0.01 0.00 0.00 0
20260903033128 89 238 0.0 0.0 0.01 0.00 0.00 0
20260903032628 89 238 0.0 0.0 0.01 0.00 0.00 1
20260903032128 89 238 0.0 0.0 0.01 0.00 0.00 1
20260903031627 89 238 0.0 0.0 0.01 0.00 0.00 1
20260903031128 89 238 0.0 0.0 0.01 0.00 0.00 1
20260903030628 89 238 0.0 0.0 0.01 0.00 0.00 1
20260903030127 89 238 0.0 0.0 0.01 0.00 0.00 1
20260903025627 89 238 0.0 0.0 0.01 0.00 0.00 1
20260903025127 89 238 0.0 0.0 0.01 0.00 0.00 1
20260903024628 90 238 0.0 0.0 0.01 0.00 0.00 1
20260903024128 89 238 0.0 0.0 0.01 0.00 0.00 1
20260903023628 90 238 0.0 0.0 0.01 0.00 0.00 1
20260903023127 90 238 0.0 0.0 0.01 0.00 0.00 0
20260903022628 90 238 0.0 0.0 0.01 0.00 0.00 0
20260903022127 90 238 0.0 0.0 0.01 0.00 0.00 0
20260903021628 90 238 0.0 0.0 0.01 0.00 0.00 0
20260903021128 90 238 0.0 0.0 0.01 0.00 0.00 0
20260903020628 90 238 0.0 0.0 0.01 0.00 0.00 0
20260903020128 91 238 0.0 0.0 0.01 0.00 0.00 0
20260903015628 91 238 0.0 0.0 0.01 0.00 0.00 0
20260903015129 91 238 0.0 0.0 0.01 0.00 0.00 0
20260903014627 91 238 0.0 0.0 0.01 0.00 0.00 0
20260903014128 91 238 0.0 0.0 0.01 0.00 0.00 0
20260903013628 91 238 0.0 0.0 0.01 0.00 0.00 0
20260903013128 92 238 0.0 0.0 0.01 0.00 0.00 0
20260903012627 92 238 0.0 0.0 0.01 0.00 0.00 0
20260903012128 92 238 0.0 0.0 0.01 0.00 0.00 0
20260903011628 92 238 0.0 0.0 0.01 0.00 0.00 0
20260903011128 93 238 0.0 0.0 0.01 0.00 0.00 0
20260903010628 93 238 0.0 0.0 0.01 0.00 0.00 0
20260903010128 93 238 0.0 0.0 0.01 0.00 0.00 0
20260903005628 93 238 0.0 0.0 0.01 0.00 0.00 0
20260903005128 94 238 0.0 0.0 0.01 0.00 0.00 0
20260903004628 94 238 0.0 0.0 0.01 0.00 0.00 0
20260903004128 95 238 0.0 0.0 0.01 0.00 0.00 0
20260903003628 95 238 0.0 0.0 0.01 0.00 0.00 0
20260903003127 96 238 0.0 0.0 0.01 0.00 0.00 0
20260903002628 96 238 0.0 0.0 0.01 0.00 0.00 0
20260903002128 96 238 0.0 0.0 0.01 0.00 0.00 0
20260903001628 97 238 0.0 0.0 0.01 0.00 0.00 0
20260903001128 97 238 0.0 0.0 0.01 0.00 0.00 0
20260903000628 97 238 0.0 0.0 0.01 0.00 0.00 0
20260903000129 97 238 0.0 0.0 0.01 0.00 0.00 0
20260902235628 97 238 0.0 0.0 0.01 0.00 0.00 0
20260902235128 98 238 0.0 0.0 0.01 0.00 0.00 0
20260902234628 100 238 0.0 0.0 0.01 0.00 0.00 0
20260902234128 100 238 0.0 0.0 0.01 0.00 0.00 0
20260902233628 100 238 0.0 0.0 0.01 0.00 0.00 0
20260902233128 100 238 0.0 0.0 0.01 0.00 0.00 0
20260902232628 100 238 0.0 0.0 0.01 0.00 0.00 0
20260902232128 100 238 0.0 0.0 0.01 0.00 0.00 0
20260902231628 101 238 0.0 0.0 0.01 0.00 0.00 0
20260902231127 101 238 0.0 0.0 0.01 0.00 0.00 0
20260902230628 101 238 0.0 0.0 0.01 0.00 0.00 0
20260902230129 102 238 0.0 0.0 0.01 0.00 0.00 0
20260902225628 102 238 0.0 0.0 0.01 0.00 0.00 0
20260902225128 102 238 0.0 0.0 0.01 0.00 0.00 0
20260902224628 102 277 0.0 0.0 0.01 0.00 0.00 0
20260902224128 102 277 0.0 0.0 0.01 0.00 0.00 0
20260902223628 102 277 0.0 0.0 0.01 0.00 0.00 0
20260902223129 101 277 0.0 0.0 0.01 0.00 0.00 0
20260902222627 101 277 0.0 0.0 0.01 0.00 0.00 0
20260902222128 101 277 0.0 0.0 0.01 0.00 0.00 0
20260902221628 101 277 0.0 0.0 0.01 0.00 0.00 0
20260902221127 102 277 0.0 0.0 0.01 0.00 0.00 0
20260902220628 103 277 0.0 0.0 0.01 0.00 0.00 0
20260902220128 103 277 0.0 0.0 0.01 0.00 0.00 0
20260902215628 102 277 0.0 0.0 0.01 0.00 0.00 0
20260902215128 103 277 0.0 0.0 0.01 0.00 0.00 0
20260902214628 103 277 0.0 0.0 0.01 0.00 0.00 0
20260902214128 103 277 0.0 0.0 0.01 0.00 0.00 0
20260902213628 103 277 0.0 0.0 0.01 0.00 0.00 0
20260902213128 102 277 0.0 0.0 0.01 0.00 0.00 0
20260902212629 102 277 0.0 0.0 0.01 0.00 0.00 0
20260902212127 102 277 0.0 0.0 0.01 0.00 0.00 0
20260902211627 103 277 0.0 0.0 0.01 0.00 0.00 0
20260902211127 103 277 0.0 0.0 0.01 0.00 0.00 0
20260902210627 103 277 0.0 0.0 0.01 0.00 0.00 0
20260902210128 103 277 0.0 0.0 0.01 0.00 0.00 0
20260902205627 102 277 0.0 0.0 0.01 0.00 0.00 0
20260902205127 101 277 0.0 0.0 0.01 0.00 0.00 0
20260902204627 101 277 0.0 0.0 0.01 0.00 0.00 0
20260902204129 101 277 0.0 0.0 0.01 0.00 0.00 0
20260902203627 101 277 0.0 0.0 0.01 0.00 0.00 0
20260902203128 101 277 0.0 0.0 0.01 0.00 0.00 0
20260902202628 103 277 0.0 0.0 0.01 0.00 0.00 0
20260902202128 103 277 0.0 0.0 0.01 0.00 0.00 0
20260902201629 102 277 0.0 0.0 0.01 0.00 0.00 0
20260902201129 102 277 0.0 0.0 0.01 0.00 0.00 0
20260902200627 101 277 0.0 0.0 0.01 0.00 0.00 0
20260902200128 101 277 0.0 0.0 0.01 0.00 0.00 0
20260902195628 102 277 0.0 0.0 0.01 0.00 0.00 0
20260902195127 101 277 0.0 0.0 0.01 0.00 0.00 0
20260902194628 101 277 0.0 0.0 0.01 0.00 0.00 0
20260902194128 100 277 0.0 0.0 0.01 0.00 0.00 0
20260902193627 100 277 0.0 0.0 0.01 0.00 0.00 0
20260902193128 100 277 0.0 0.0 0.01 0.00 0.00 0
20260902192628 101 277 0.0 0.0 0.01 0.00 0.00 0
20260902192128 101 277 0.0 0.0 0.01 0.00 0.00 0
20260902191627 100 277 0.0 0.0 0.01 0.00 0.00 0
20260902191129 99 277 0.0 0.0 0.01 0.00 0.00 0
20260902190627 97 277 0.0 0.0 0.01 0.00 0.00 0
20260902190127 97 277 0.0 0.0 0.01 0.00 0.00 0
20260902185627 96 277 0.0 0.0 0.01 0.00 0.00 0
20260902185127 96 277 0.0 0.0 0.01 0.00 0.00 0
20260902184627 96 277 0.0 0.0 0.01 0.00 0.00 0
20260902184128 96 277 0.0 0.0 0.01 0.00 0.00 0
20260902183627 97 277 0.0 0.0 0.01 0.00 0.00 0
20260902183127 97 277 0.0 0.0 0.01 0.00 0.00 0
20260902182627 97 277 0.0 0.0 0.01 0.00 0.00 0
20260902182128 97 277 0.0 0.0 0.01 0.00 0.00 0
20260902181627 97 277 0.0 0.0 0.01 0.00 0.00 0
20260902181127 96 277 0.0 0.0 0.01 0.00 0.00 0
20260902180628 96 277 0.0 0.0 0.01 0.00 0.00 0
20260902180128 96 277 0.0 0.0 0.01 0.00 0.00 0
20260902175627 95 277 0.0 0.0 0.01 0.00 0.00 0
20260902175128 95 277 0.0 0.0 0.01 0.00 0.00 0
20260902174627 95 277 0.0 0.0 0.01 0.00 0.00 0
20260902174128 95 277 0.0 0.0 0.01 0.00 0.00 0
20260902173627 95 277 0.0 0.0 0.01 0.00 0.00 0
20260902173127 95 277 0.0 0.0 0.01 0.00 0.00 0
20260902172627 94 277 0.0 0.0 0.01 0.00 0.00 0
20260902172128 94 277 0.0 0.0 0.01 0.00 0.00 1
20260902171627 93 277 0.0 0.0 0.01 0.00 0.00 1
20260902171128 93 277 0.0 0.0 0.01 0.00 0.00 1
20260902170628 93 277 0.0 0.0 0.01 0.00 0.00 1
20260902170129 92 277 0.0 0.0 0.01 0.00 0.00 1
20260902165627 91 277 0.0 0.0 0.01 0.00 0.00 1
20260902165128 91 281 0.0 0.0 0.01 0.00 0.00 2
20260902164628 90 281 0.0 0.0 0.01 0.00 0.00 1
20260902164127 90 281 0.0 0.0 0.01 0.00 0.00 2
20260902163627 89 281 0.0 0.0 0.01 0.00 0.00 1
20260902163128 89 281 0.0 0.0 0.01 0.00 0.00 1
20260902162628 89 281 0.0 0.0 0.01 0.00 0.00 2
20260902162128 89 281 0.0 0.0 0.01 0.00 0.00 2
20260902161627 89 281 0.0 0.0 0.01 0.00 0.00 2
20260902161128 88 281 0.0 0.0 0.01 0.00 0.00 2
20260902160629 88 281 0.0 0.0 0.01 0.00 0.00 2
20260902160128 88 281 0.0 0.0 0.01 0.00 0.00 2
20260902155627 89 281 0.0 0.0 0.01 0.00 0.00 2
20260902155129 90 281 0.0 0.0 0.01 0.00 0.00 2
20260902154628 89 281 0.0 0.0 0.01 0.00 0.00 3